This is the latest recevied weather packets stored in our database for station/object W1ERB-13. If no packets are shown the sender has not sent any weather packets the latest 1 day(s).
| Time | Temp. | Humidity | Pressure | Rain* | Wind** | Luminosity | Snow |
|---|---|---|---|---|---|---|---|
| 1778045324 | 15.56° C | 80% | 1010 hPa | 0 mm | 1.79 m/s, 208° | 0 W/m² | - |
| 1778045022 | 15.56° C | 80% | 1010 hPa | 0 mm | 1.34 m/s, 177° | 0 W/m² | - |
| 1778044720 | 15.56° C | 79% | 1010.1 hPa | 0 mm | 0.89 m/s, 203° | 0 W/m² | - |
| 1778044416 | 15.56° C | 79% | 1010 hPa | 0 mm | 1.34 m/s, 223° | 0 W/m² | - |
| 1778044113 | 16.11° C | 79% | 1010.1 hPa | 0 mm | 1.79 m/s, 227° | 0 W/m² | - |
| 1778043811 | 16.11° C | 79% | 1010 hPa | 0 mm | 1.34 m/s, 258° | 0 W/m² | - |
| 1778043508 | 16.11° C | 79% | 1009.9 hPa | 0 mm | 2.24 m/s, 215° | 0 W/m² | - |
| 1778043204 | 16.11° C | 78% | 1010.1 hPa | 0 mm | 1.34 m/s, 257° | 0 W/m² | - |
| 1778042901 | 16.11° C | 78% | 1010 hPa | 0 mm | 1.34 m/s, 247° | 0 W/m² | - |
| 1778042599 | 16.11° C | 78% | 1010.2 hPa | 0 mm | 1.34 m/s, 262° | 0 W/m² | - |
| 1778042296 | 16.11° C | 78% | 1010.1 hPa | 0 mm | 0.89 m/s, 263° | 0 W/m² | - |
| 1778041993 | 16.11° C | 77% | 1010.2 hPa | 0 mm | 1.34 m/s, 273° | 0 W/m² | - |
| 1778041692 | 16.11° C | 77% | 1010.3 hPa | 0 mm | 1.79 m/s, 206° | 0 W/m² | - |
| 1778041390 | 16.67° C | 76% | 1010 hPa | 0 mm | 1.34 m/s, 222° | 0 W/m² | - |
| 1778041089 | 16.67° C | 77% | 1010.2 hPa | 0 mm | 1.34 m/s, 237° | 0 W/m² | - |
| 1778040785 | 16.67° C | 76% | 1010.3 hPa | 0 mm | 1.79 m/s, 168° | 0 W/m² | - |
| 1778040482 | 16.67° C | 76% | 1010.3 hPa | 0 mm | 1.79 m/s, 230° | 0 W/m² | - |
| 1778040179 | 16.67° C | 75% | 1010 hPa | 0 mm | 1.34 m/s, 251° | 0 W/m² | - |
| 1778039876 | 16.67° C | 75% | 1010.1 hPa | 0 mm | 1.34 m/s, 146° | 0 W/m² | - |
| 1778039573 | 16.67° C | 75% | 1010.1 hPa | 0 mm | 1.79 m/s, 225° | 0 W/m² | - |
| 1778039270 | 16.67° C | 74% | 1010.2 hPa | 0 mm | 1.34 m/s, 257° | 0 W/m² | - |
| 1778038967 | 16.67° C | 74% | 1010.1 hPa | 0 mm | 1.79 m/s, 218° | 0 W/m² | - |
| 1778038664 | 16.67° C | 73% | 1010.1 hPa | 0 mm | 0.89 m/s, 221° | 0 W/m² | - |
| 1778038361 | 16.67° C | 72% | 1010.3 hPa | 0 mm | 1.34 m/s, 237° | 0 W/m² | - |
| 1778038058 | 17.22° C | 72% | 1010.1 hPa | 0 mm | 1.79 m/s, 185° | 0 W/m² | - |
* Rain latest hour (hover to see other rain measurements)
** Current wind speed in m/s (hover to see current wind gust speed)